Regional Weather Roundup
Issued by NWS

Home | Current Version | Previous Version | Graphics & Text | Print | Product List | Glossary On
Versions: 1 2 3 4 5 6 7 8 9 10 11 12 13 14 15 16 17 18 19 20 21 22 23 24 25 26 27 28 29 30 31 32 33 34 35 36 37 38 39 40 41 42 43 44 45 46 47 48 49 50
000
ASUS43 KIND 221659
RWRIN

WEATHER ROUNDUP FOR INDIANA
NATIONAL WEATHER SERVICE INDIANAPOLIS IN
100 PM EDT TUE APR 22 2014

NOTE: "FAIR" INDICATES FEW OR NO CLOUDS BELOW 12,000 FEET WITH NO
SIGNIFICANT WEATHER AND/OR OBSTRUCTIONS TO VISIBILITY.

* - STATION DOES NOT REPORT WEATHER SUCH AS PRECIPITATION OR FOG.

+ - STATION NOT QUALITY CONTROLLED BY THE NATIONAL WEATHER SERVICE.
    USE DATA WITH CAUTION...ESPECIALLY DEWPOINT AND RELATIVE
    HUMIDITY OBSERVATIONS.

INZ001>003-010>013-019-020-221800-
NORTHWEST INDIANA

CITY           SKY/WX    TMP DP  RH WIND       PRES   REMARKS
GARY /AIRPORT/ MOSUNNY   48  32  53 N14G28    30.00S
RENSSELAER +   SUNNY     50  32  50 N14       29.98S
VALPARAISO     SUNNY     46  30  53 N17G25    29.98S

$$

LMZ046-743>745-221800-
SOUTHERN LAKE MICHIGAN

STATION/POSITION TIME  TEMP WIND        PRES
                       AIR  DIR/SP/G
                 (UTC) (F)  (DEG/KT/KT) (MB)
MICHIGAN CITY    1600   40  320/ 17/ 20   N/A

$$

INZ004-005-014>016-021>024-221800-
NORTH CENTRAL INDIANA

CITY           SKY/WX    TMP DP  RH WIND       PRES   REMARKS
ELKHART        MOSUNNY   46  30  53 N14G23    29.93S
GOSHEN         MOSUNNY   50  33  52 NW20G29   29.91S
SOUTH BEND     MOSUNNY   48  31  51 N23G30    29.95S

$$

INZ006>009-017-018-025>027-221800-
NORTHEAST INDIANA

CITY           SKY/WX    TMP DP  RH WIND       PRES   REMARKS
ANGOLA *+      SUNNY     50  36  57 NW13      29.85S
FORT WAYNE     MOSUNNY   55  34  45 NW18G24   29.87S

$$

INZ028-029-035-036-043>045-051>053-221800-
WEST CENTRAL INDIANA

CITY           SKY/WX    TMP DP  RH WIND       PRES   REMARKS
GREENCASTLE +  SUNNY     55  37  50 NW14      29.94F
LAFAYETTE      SUNNY     54  36  50 N16       29.96S
TERRE HAUTE    SUNNY     59  40  49 N9G22     29.95F

$$

INZ030>032-037>040-046>048-054>057-064-065-221800-
CENTRAL INDIANA

CITY           SKY/WX    TMP DP  RH WIND       PRES   REMARKS
ANDERSON       SUNNY     55  36  47 NW17G23   29.91R
COLUMBUS       SUNNY     61  39  44 NW16G22   29.91S
INDIANAPOLIS   SUNNY     56  36  47 NW17G25   29.92S
-EAGLE CREEK   SUNNY     56  36  47 NW13      29.92S
KOKOMO *+        N/A    N/A N/A N/A MISG        N/A
MT COMFORT *+  SUNNY     59  39  47 NW12G22   29.91S
SHELBYVILLE    SUNNY     61  41  47 NW17      29.89F

$$

INZ033-034-041-042-049-050-058-059-221800-
EAST CENTRAL INDIANA

CITY           SKY/WX    TMP DP  RH WIND       PRES   REMARKS
MUNCIE         SUNNY     55  38  52 NW17G24   29.89R

$$

INZ060-061-067>069-081>083-085>088-221800-
SOUTHWEST INDIANA

CITY           SKY/WX    TMP DP  RH WIND       PRES   REMARKS
EVANSVILLE     MOSUNNY   67  50  54 NW14G20   29.93S
HUNTINGBURG *+ MOSUNNY   66  54  63 N14       29.92S

$$

INZ062-063-066-070>080-084-089>092-221800-
SOUTH CENTRAL AND SOUTHEAST INDIANA

CITY           SKY/WX    TMP DP  RH WIND       PRES   REMARKS
BLOOMINGTON    SUNNY     61  41  47 N12       29.92F

$$




USA.gov is the U.S. government's official web portal to all federal, state and local government web resources and services.